Location: Boiro
(42.6475°N, 8.8834°W)
Time: 15:49:35
(UTC+02:00)

Explorer 7 - Pass Details

Date: 30 June 2022
Orbit: 482 x 668 km, 50.3° (Epoch: 15 August)

Event Time Altitude Azimuth Distance (km) Brightness Sun altitude
Rises 06:18:37 0° 300° (WNW) 2,939 10.3 -7.0°
Reaches altitude 10° 06:21:03 10° 304° (NW) 2,002 9.5 -6.7°
Maximum altitude 06:25:35 59° 24° (NNE) 696 7.7 -6.1°
Drops below altitude 10° 06:29:51 10° 105° (ESE) 1,879 10.1 -5.5°
Sets 06:32:04 0° 109° (ESE) 2,741 10.9 -5.1°
